Tracking 19562 objects as of 25-Mar-2019
HD Live streaming from Space Station
objects crossing your sky now

COSMOS 1302

Track COSMOS 1302 now!
10-day predictions
COSMOS 1302 is classified as:


NORAD ID: 12791
Int'l Code: 1981-084A
Perigee: 772.9 km
Apogee: 797.7 km
Inclination: 74.0 °
Period: 100.4 minutes
Semi major axis: 7156 km
RCS: 2.1358 m2 (large)
Launch date: August 28, 1981
Source: Commonwealth of Independent States (former USSR) (CIS)
Launch site: PLESETSK MISSILE AND SPACE COMPLEX (PKMTR)
aabbcc
Your satellite tracking list
Your tracking list is empty




NASA's NSSDC Master Catalog

Two Line Element Set (TLE):
1 12791U 81084A   19084.51445989  .00000011  00000-0  13299-4 0  9998
2 12791  74.0295  28.6129 0017351 100.9832 259.3273 14.34072198964376
Source of the keplerian elements: AFSPC